Location: Walsall
(52.5862°N, 1.9829°W)
Time: 01:17:15
(UTC+01:00)

X-37B - Pass Details

Date: 28 June 2021
Orbit: 383 x 392 km, 45.0° (Epoch: 01 July)

Event Time Altitude Azimuth Distance (km) Brightness Sun altitude
Rises 00:00:22 0° 257° (WSW) 2,257 4.5 -12.6°
Reaches altitude 10° 00:02:53 10° 237° (WSW) 1,402 3.2 -12.7°
Enters shadow 00:04:26 16° 208° (SSW) 1,085 2.4 -12.7°
